Theta_e
336 338 349 354 355 355 355 354 354 353 352 353 353 354 355 355 354 353 353 352 353 353 350 350 349 351 350 350 350 349 349 347 346 345 346 347 344 344 346 346 346 343 347
334 339 347 352 354 354 354 354 353 353 352 352 354 354 355 355 354 353 353 353 351 352 351 350 349 348 349 349 349 348 346 346 345 344 345 346 345 343 344 344 346 344 346
336 340 346 349 353 353 353 353 352 353 353 352 353 353 354 354 354 354 354 352 352 353 350 349 348 348 348 347 347 346 344 344 342 341 340 335 338 344 345 346 345 345 346
338 343 346 346 351 352 352 352 352 353 353 352 353 353 353 353 353 353 353 352 352 353 350 347 347 347 346 345 345 344 344 343 341 340 337 337 338 343 344 343 345 345 345
339 343 345 345 350 351 351 351 351 352 353 352 352 353 353 353 352 352 353 352 352 351 349 348 346 344 345 345 344 343 342 342 340 339 337 337 339 342 344 343 343 343 344
339 343 343 346 349 351 350 351 351 352 353 352 352 352 352 352 352 351 351 351 350 349 349 346 343 343 344 344 344 342 342 342 339 336 336 339 337 344 342 343 343 343 343
337 341 342 344 348 349 350 350 350 351 352 352 352 352 352 351 350 350 350 350 349 348 348 345 342 342 343 342 342 339 341 337 334 333 333 332 335 341 340 339 341 341 341
337 339 342 339 343 346 347 348 348 349 350 351 351 351 351 350 349 349 349 349 348 348 347 344 342 341 342 341 337 334 335 329 326 326 327 329 336 337 336 336 335 336 337
336 338 341 343 341 338 341 343 344 346 347 348 349 348 347 346 346 346 346 347 347 346 345 342 340 339 339 336 330 332 327 324 319 321 324 324 333 332 331 330 330 331 333
330 337 340 341 343 344 343 335 337 340 342 343 343 342 338 339 340 340 338 342 345 343 341 339 338 337 335 328 329 326 322 321 315 316 318 322 329 327 325 324 323 324 326
330 335 338 339 341 343 344 338 332 334 335 335 336 333 331 340 338 335 335 337 340 338 337 335 334 332 326 324 324 320 316 309 311 311 314 326 325 323 322 321 321 322 322
328 332 336 337 339 340 341 341 341 342 342 340 340 338 338 338 338 337 330 330 332 331 331 330 328 323 313 308 312 312 306 306 307 309 312 324 323 322 321 321 321 321 321
325 331 334 336 338 338 339 339 340 340 340 340 339 338 337 336 333 332 331 329 328 323 323 320 316 302 301 301 300 302 302 303 304 307 314 321 321 321 322 322 322 321 321
315 326 332 335 336 337 338 338 338 336 336 336 336 336 333 330 330 328 327 324 322 318 311 306 300 298 298 299 299 300 300 300 302 304 310 316 320 319 322 323 322 321 321
309 317 327 334 335 335 336 336 336 335 333 334 331 329 329 328 326 325 322 320 318 312 308 301 299 299 298 298 298 299 298 296 297 300 303 312 318 321 323 324 325 323 321
299 307 321 329 333 334 332 334 333 333 332 330 329 328 326 325 322 320 317 315 313 311 304 301 299 297 297 298 297 297 297 296 296 297 299 305 317 319 323 324 325 324 325
299 310 319 324 332 331 332 331 332 329 329 328 327 327 327 325 323 319 315 312 309 304 301 301 299 298 297 297 297 297 297 297 296 297 297 299 307 314 320 322 323 324 322
299 309 321 324 327 331 332 332 331 328 327 327 325 324 322 320 319 317 314 311 305 302 301 300 300 298 296 296 294 295 296 296 297 297 297 297 302 307 313 318 319 319 321
296 299 310 321 323 330 332 329 328 326 326 325 324 323 322 320 318 315 313 308 303 300 300 299 296 298 297 296 295 295 294 295 295 297 296 297 300 303 304 312 312 314 317
294 296 306 317 322 328 329 328 327 325 324 322 321 320 319 319 317 315 312 307 303 300 298 298 296 294 294 294 296 294 294 293 294 293 294 297 298 300 300 299 298 301 311
294 294 299 306 318 324 325 324 323 322 323 320 320 319 318 317 315 313 309 304 302 300 299 299 296 295 292 293 293 293 294 294 293 292 294 293 295 298 297 295 295 296 297
293 294 297 304 313 320 323 324 324 323 322 321 320 318 317 316 315 312 309 305 302 300 298 297 296 294 292 295 291 291 288 291 292 293 292 292 293 296 296 296 296 296 294
290 293 297 306 313 318 320 324 319 319 317 317 317 315 316 315 313 312 310 307 304 302 299 298 297 295 292 293 292 291 287 287 290 291 291 292 292 293 293 294 295 295 295
289 293 296 306 313 316 319 320 318 316 313 315 316 316 314 314 312 310 309 307 306 303 300 299 299 297 295 293 291 292 291 290 287 287 289 290 290 292 291 291 293 293 294
288 291 293 301 311 315 317 318 318 316 316 316 314 314 312 311 312 311 310 306 303 302 301 299 298 296 296 295 291 290 289 288 288 288 286 287 288 284 285 290 288 290 292
288 291 293 298 306 313 315 316 316 316 315 312 312 311 309 309 309 309 308 306 304 302 301 300 299 298 297 296 294 292 290 290 288 287 286 285 286 285 285 288 289 287 288
Wind_Speed
10 12 22 22 22 20 19 17 19 24 25 21 18 18 20 22 22 23 22 20 18 18 19 18 15 15 15 15 14 15 14 14 14 14 13 13 16 15 14 13 11 10 16
5 11 24 24 23 21 19 19 18 20 24 23 21 19 21 21 22 22 22 20 18 18 19 18 16 16 15 14 14 14 15 14 12 13 12 13 14 15 15 13 11 12 16
7 11 18 22 22 22 20 19 18 21 22 24 23 21 21 21 21 21 21 20 19 19 20 19 17 16 15 14 14 15 15 13 13 12 11 6 6 14 14 13 12 13 14
8 14 17 19 21 21 20 19 18 19 21 22 23 22 21 21 21 21 20 21 19 19 19 19 17 16 15 14 14 14 15 13 12 12 5 5 7 14 13 14 13 13 12
10 12 18 22 22 22 21 20 19 19 20 22 22 23 23 22 21 21 20 20 19 20 20 18 17 16 14 15 15 13 13 10 11 9 6 5 5 12 13 13 12 11 9
10 14 16 26 24 24 23 22 21 20 21 22 22 23 23 22 22 21 21 19 20 19 20 18 19 17 14 14 14 14 14 14 12 7 6 7 6 14 13 13 12 9 8
10 11 15 23 26 25 24 23 22 21 22 23 23 23 23 23 22 21 21 19 19 19 20 19 19 19 16 14 14 12 13 13 8 7 7 6 6 14 11 10 10 12 12
13 12 13 20 23 24 24 24 23 22 22 23 24 23 23 23 23 22 21 21 20 20 19 20 19 18 16 15 13 11 13 12 7 6 7 6 12 12 10 9 8 7 8
7 13 13 16 16 18 20 21 22 22 22 22 24 24 24 23 23 23 21 21 21 21 20 18 19 19 17 15 13 14 14 12 7 5 6 5 13 10 9 9 8 7 7
5 9 15 18 17 15 14 16 17 18 18 19 21 20 19 19 20 22 19 22 22 20 20 19 17 17 16 15 16 15 14 12 7 6 5 5 11 9 8 7 7 6 6
7 11 13 14 16 16 16 13 14 15 15 15 15 16 15 12 13 15 18 18 21 20 21 19 18 16 15 14 16 16 12 4 5 4 3 10 9 8 6 6 6 6 6
12 13 12 12 14 15 12 14 14 12 11 12 12 14 11 12 13 14 14 18 18 16 18 19 18 16 11 5 6 10 5 5 4 4 3 9 9 8 6 5 6 6 5
12 7 13 13 13 15 12 11 8 8 8 9 13 13 11 10 10 10 9 9 9 11 7 9 9 5 7 6 5 5 6 5 4 3 5 6 9 7 7 6 7 6 6
9 11 15 13 12 15 10 10 11 9 9 7 9 14 10 8 11 10 8 10 10 5 7 6 3 7 7 7 7 7 6 5 3 3 4 6 6 6 7 7 7 7 7
9 12 12 13 13 15 14 10 10 11 11 11 10 11 11 9 10 10 9 9 8 7 8 8 7 7 7 7 6 7 6 6 6 3 2 7 2 5 7 8 8 8 8
11 12 14 13 14 12 12 14 10 9 11 11 12 13 16 12 9 10 9 9 8 8 6 7 8 7 5 6 7 6 6 5 5 5 3 3 3 4 2 6 7 7 5
15 13 12 17 15 13 13 12 10 7 9 11 11 13 16 15 14 11 12 8 7 8 7 5 6 6 6 5 6 6 6 5 4 5 3 2 3 5 3 3 5 6 4
13 12 12 13 16 12 10 9 9 10 9 10 11 12 14 15 14 11 9 10 9 8 8 7 7 6 6 5 4 4 5 5 5 5 3 3 2 3 7 8 6 3 2
11 13 14 12 16 14 12 9 8 11 10 10 10 11 15 17 17 10 10 9 11 8 7 7 4 6 7 5 5 4 4 4 5 3 5 3 3 3 3 5 5 6 4
10 11 10 8 13 14 10 8 8 9 8 9 10 11 14 13 18 15 10 10 11 9 7 6 7 3 4 6 6 5 3 3 3 2 4 3 3 3 3 3 2 2 4
9 9 12 12 10 10 10 10 9 10 8 9 11 16 16 13 16 17 11 13 10 13 12 11 6 9 3 5 6 3 3 4 2 0 2 3 3 4 3 2 1 1 2
11 10 9 12 11 12 10 9 7 9 6 9 10 14 18 18 17 15 16 14 14 10 11 11 9 6 3 6 5 4 2 2 2 0 0 2 4 3 4 4 3 2 0
10 10 12 13 11 12 15 8 4 5 4 5 8 9 12 17 19 18 19 16 14 12 12 14 12 9 6 5 3 6 4 5 2 1 1 2 4 3 3 3 3 3 3
12 9 11 9 9 10 15 12 12 9 7 3 7 8 9 11 14 15 17 18 18 12 13 12 11 9 7 11 1 2 4 5 5 1 2 2 2 4 4 3 3 3 3
11 12 9 9 10 8 12 15 13 10 7 5 4 8 8 9 9 10 11 13 16 12 13 14 13 11 6 8 4 4 2 3 3 4 3 3 2 2 2 4 3 3 3
2 5 5 8 11 10 12 15 17 17 12 9 9 8 7 8 7 8 9 10 11 13 15 13 12 12 10 8 6 4 5 5 4 4 3 2 2 2 1 2 4 4 4
Wind_Direction
218 175 179 180 180 183 184 180 161 152 148 151 151 142 142 145 147 150 153 153 149 148 147 145 143 136 132 128 125 122 114 110 106 107 99 100 99 101 94 81 79 85 90
154 177 176 176 180 182 185 179 168 158 151 152 153 151 145 147 149 154 150 150 150 152 149 146 146 143 133 126 123 121 115 106 100 98 96 90 101 101 99 93 86 96 93
167 167 176 177 178 182 183 183 176 165 158 154 153 156 152 152 152 154 149 151 154 154 151 146 147 143 135 129 126 122 118 113 108 102 101 99 94 102 96 95 98 90 97
164 162 174 176 180 183 182 181 179 172 163 158 156 156 157 155 155 154 156 155 161 155 156 155 149 143 140 135 131 129 127 120 116 107 94 105 110 104 106 99 91 90 88
167 175 174 176 179 182 182 179 180 176 169 163 161 160 159 159 159 157 158 155 155 153 149 150 149 148 144 142 133 139 129 132 128 108 98 98 96 103 96 94 92 91 83
180 174 186 175 181 183 179 180 180 178 175 169 167 164 163 163 161 159 159 162 156 160 152 155 155 151 146 144 142 137 128 125 117 108 99 89 85 103 103 101 102 99 89
178 184 174 189 178 182 182 181 182 181 179 173 172 169 168 164 163 163 161 162 156 158 154 156 160 158 151 148 140 137 135 121 114 111 102 88 90 85 89 95 84 80 77
174 176 185 187 183 182 182 182 183 185 182 179 175 174 172 168 165 165 164 161 160 158 151 157 158 156 147 143 138 138 125 116 104 105 103 100 95 102 104 103 103 83 81
227 174 176 189 189 181 183 184 185 185 186 182 179 176 176 172 166 163 164 160 159 151 151 155 158 154 147 141 136 124 116 115 115 118 111 93 101 110 109 104 98 97 89
240 212 182 189 186 184 185 182 183 184 186 182 180 177 174 172 167 160 161 159 157 148 156 155 153 147 145 133 129 119 113 114 110 97 90 104 113 116 111 108 108 105 99
226 211 201 193 191 188 188 188 183 184 181 180 176 172 168 170 165 151 151 158 153 159 154 152 150 144 131 126 125 118 109 100 98 96 100 113 125 123 122 123 121 111 112
222 216 208 198 193 192 191 189 189 191 188 187 183 175 175 166 161 157 153 157 149 154 154 152 145 131 119 113 114 107 104 105 95 108 109 126 135 136 136 138 127 124 126
275 248 210 199 197 192 192 189 189 189 190 185 181 177 173 170 163 147 144 138 141 150 148 141 132 123 121 124 109 109 109 106 107 103 116 127 142 146 143 149 133 133 137
295 242 217 206 207 200 190 193 190 183 181 183 181 173 168 165 162 155 150 142 142 140 127 120 146 122 119 114 119 120 117 118 120 117 113 107 138 154 154 153 141 141 150
274 275 246 204 204 205 198 186 189 185 186 178 162 161 159 163 161 150 140 138 148 142 144 138 145 129 129 123 118 122 125 125 128 125 120 129 142 161 167 156 144 142 152
270 267 265 222 208 205 206 188 187 183 178 179 171 170 158 150 153 142 137 129 153 135 149 149 146 134 122 124 121 126 130 127 130 128 129 127 123 352 199 152 146 136 146
266 265 254 245 207 203 198 201 184 177 182 174 174 174 171 156 162 159 146 154 158 127 114 130 119 111 113 113 119 121 124 129 130 132 125 106 56 28 342 149 107 106 124
266 255 254 249 220 199 195 195 193 170 183 178 169 165 165 146 145 143 158 163 144 142 145 140 141 131 124 127 126 128 122 124 129 124 116 108 86 62 54 67 76 101 100
256 262 258 251 228 200 203 193 194 182 185 179 169 170 168 156 146 148 165 154 147 144 143 150 110 133 143 117 120 108 113 125 132 130 131 132 127 105 89 81 70 48 46
249 260 259 250 226 203 190 190 189 184 181 167 172 169 165 167 156 155 160 161 152 143 142 130 131 89 116 118 102 78 71 80 100 142 147 138 155 142 122 108 71 6 34
243 250 261 261 235 201 194 200 193 186 174 174 178 170 164 168 161 154 159 156 167 158 161 154 126 130 92 128 107 59 30 51 79 121 149 140 163 152 146 140 138 77 1
239 231 249 251 237 213 198 201 198 187 182 177 182 181 172 171 167 160 158 170 162 151 151 156 148 131 102 182 131 121 128 338 352 160 134 168 191 155 164 168 162 161 79
249 235 234 239 234 217 194 187 174 147 121 169 172 182 184 177 168 170 169 168 164 162 168 166 160 161 144 194 164 136 125 209 145 357 220 220 190 177 184 180 185 166 163
238 237 225 223 223 218 189 182 181 180 169 157 167 182 173 180 175 175 174 169 170 167 168 173 172 163 146 172 105 90 72 133 156 198 292 265 219 213 191 193 193 180 169
229 240 220 218 208 200 186 183 183 179 165 156 152 153 169 160 180 182 183 178 164 167 163 170 171 169 162 163 158 147 119 86 87 126 177 235 305 248 224 183 194 184 177
301 273 258 216 218 194 183 178 178 177 163 152 157 159 162 165 162 176 179 186 178 170 165 169 176 179 174 166 172 151 154 156 175 143 120 203 198 263 248 220 184 186 186